FENGYUN 1C DEB, 30932

Orbit data source: Space-Track

FENGYUN 1C DEB, 30932 is space debris in SSO originally from a launch on Mon, 10 May 1999 UTC launched from the Taiyaun Space Center, China (TSC). Fengyun 1C debris stems from the Chinese weather satellite Fengyun-1C, which was intentionally destroyed by a Chinese anti-satellite missile in 2007. This event dramatically increased the amount of space debris, with thousands of trackable fragments posing hazards to satellites and human spaceflight. The Fengyun 1C debris cloud has become a focal point in discussions about space sustainability and the need for international regulations to prevent the creation of new debris.

Loading next visibility...
Identifier
30932, 1999-025AZW
Orbit
SSO
Country
Flag of CNCN / PRC
Related business
Manufacturer
Unknown
Mission
Spacecraft
Bus & Motor
Unknown
Mass
Unknown
Launch date (UTC)
1999-05-10 (27 years ago)
Launch vehicle
Unknown
Launch site
Taiyaun Space Center, China (TSC)
Object type
Payload
Rocket body
Debris
Shape & HBR
Unknown shape, 0.1 m
Radar Cross Section
Small (<0.1 m²)

Expand to show TLE details & history
Last TLE update: 9 hours ago

TLE from 9 hours ago
0 FENGYUN 1C DEB
1 30932U 99025AZW 26122.09580212  .00004468  00000-0  17722-2 0  9995
2 30932  98.9130  62.7554 0053771 244.7299 114.8304 14.28541729983978
Epoch: 2026-05-02T02:17Z
TLE epoch observation values (Epoch: 2026-05-02T02:17:57.303Z)
Latitude
0.00002°
Longitude
168.24802°
Altitude
815.903 km
Speed
7.437 km/s
True Right ascension
04h 11m 01s
True Declination
0° 00' 00"
Sunlit
Object was in daylight at epoch
Visualization orbit readout
Latitude
Unknown
Longitude
Unknown
Altitude
Unknown
Speed
Unknown
Apparent Right ascension
Unknown
Apparent Declination
Unknown
Sunlit
N/A
Visualization observer readout
Local Sidereal Time
19:12:53
Azimuth
Unknown
Elevation
Unknown
Doppler factor
Unknown
Orbital elements
Apogee altitude
832.33 km
Perigee altitude
755.202 km
Semi-major axis
7,171.903 km
Eccentricity
0.00538
Inclination
98.913°
RAAN
62.7554°
Arg. of periapsis
244.7299°
True anomaly
115.38803°
Mean anomaly
114.8304°
Eccentric anomaly
115.10937°
Mean motion
3.57348 °/min
Orbital period
100.74 mins
BSTAR
0.0017722
Loading maneuver chart data...
Computing Atmospheric mass density...
Loading historical data...
Loading historical data...
Loading historical data...
Loading historical data...
Loading historical data...
Loading historical data...
Loading historical data...

Documentation

Showing up to 5 results
|